User: anonymous   Login
Location: Seattle
(47.6064°N, 122.3308°W)
Time: 21:55:49
(UTC-08:00)
Language:

Explorer 11/Cluster Stage 4 - Orbit

View from above orbital plane
View from above orbital plane
View from above satellite
View from above satellite

Ground track
Ground track

The orbit data is extracted from the following two-line orbital elements,

1   107U 61013A   20331.40236459 +.00000469 +00000-0 +43304-4 0  9998
2   107 028.7886 346.7552 0546533 140.4127 223.7685 14.09050760989085
Epoch (UTC): 26 November 2020 09:39:24
Eccentricity: 0.0546533
inclination: 28.7886°
perigee height: 467 km
apogee height: 1258 km
right ascension of ascending node: 346.7552°
argument of perigee: 140.4127°
revolutions per day: 14.09050760
mean anomaly at epoch: 223.7685°
orbit number at epoch: 98908

The dashed part of the orbit path shows where the satellite is in the earth's shadow,  

DLR